Regional Weather Roundup
Issued by NWS

Home | Current Version | Previous Version | Graphics & Text | Print | Product List | Glossary Off
Versions: 1 2 3 4 5 6 7 8 9 10 11 12 13 14 15 16 17 18 19 20 21 22 23 24 25 26 27 28 29 30 31 32 33 34 35 36 37 38 39 40 41 42 43 44 45 46 47 48 49 50

000
ASUS43 KLMK 300110
RWRKY
KENTUCKY REGIONAL WEATHER ROUNDUP
NATIONAL WEATHER SERVICE LOUISVILLE KY
900 PM EDT FRI MAY 29 2015

NOTE "FAIR" INDICATES FEW OR NO CLOUDS BELOW 12,000 FEET
WITH NO SIGNIFICANT WEATHER AND/OR OBSTRUCTIONS TO VISIBILITY.

KYZ001>023-026-027-061>063-070>075-300200-
WESTERN AND SOUTH CENTRAL KENTUCKY

CITY           SKY/WX    TMP DP  RH WIND       PRES   REMARKS
PADUCAH        PTCLDY    80  67  64 S7        30.00R
HENDERSON      CLEAR     77  66  69 S5        30.01R
OWENSBORO      PTCLDY    78  70  76 S6        30.03R
HOPKINSVILLE   CLEAR     78  68  70 S6        30.04R
BOWLING GREEN  CLOUDY    76  68  76 S9        30.07R
GLASGOW        PTCLDY    75  65  71 S5        30.09R
$$

KYZ024-025-028>034-038-045-046-053-300200-
NORTH CENTRAL KENTUCKY

CITY           SKY/WX    TMP DP  RH WIND       PRES   REMARKS
LOUISVILLE/SDF PTCLDY    80  65  59 S8        30.05R
LOUISVILLE/LOU PTCLDY    79  65  62 VRB5      30.06R
FORT KNOX      PTCLDY    76  67  72 SE10      30.05R
$$

KYZ035>037-039>044-047>052-055>060-089>105-300200-
NORTHEAST KENTUCKY

CITY           SKY/WX    TMP DP  RH WIND       PRES   REMARKS
LEXINGTON      CLEAR     74  65  73 S3        30.10R
COVINGTON      MOCLDY    74  67  78 S8        30.07R
FRANKFORT      PTCLDY    76  64  66 S5        30.08R
$$

KYZ054-064>069-076>088-106>120-300200-
SOUTHEAST KENTUCKY

CITY           SKY/WX    TMP DP  RH WIND       PRES   REMARKS
JACKSON        MOCLDY    73  67  81 SE5       30.14F
LONDON         PTCLDY    71  65  81 S3        30.13S
SOMERSET       PTCLDY    70  64  83 CALM      30.13S
MIDDLESBORO    PTCLDY    72  66  82 W3        30.15S
MONTICELLO     PTCLDY    71  70  97 SE5       30.14S
$$




USA.gov is the U.S. government's official web portal to all federal, state and local government web resources and services.